Location: Bremen
(53.0793°N, 8.8017°E)
Time: 17:36:56
(UTC+02:00)

Explorer 7 - Pass Details

Date: 18 April 2024
Orbit: 467 x 626 km, 50.3° (Epoch: 17 May)

Event Time Altitude Azimuth Distance (km) Brightness Sun altitude
Rises 13:54:29 0° 229° (SW) 2,907 11.0 47.6°
Reaches altitude 10° 13:56:56 10° 221° (SW) 2,005 10.5 47.5°
Maximum altitude 14:01:10 36° 155° (SSE) 1,004 9.4 47.4°
Drops below altitude 10° 14:05:21 10° 89° (E) 1,986 9.7 47.2°
Sets 14:07:45 0° 81° (E) 2,877 10.3 47.1°
